TIME,DELAY(SENSOR),PRES,OXYGEN,RAWTEMP,T(OPTODE),TCPHASE,FLUOR,BETA(BETA700),BETA(BETA412),BETA(BETA440),CDOM,C(CSC),ED(ED412.40),ED(ED444.00),ED(ED489.70),ED(ED554.30),LU(LU411.80),LU(LU443.40),LU(LU489.60),LU(LU554.10),COMP,TILTX,TILTY,CHECK
1355024018,5808,877.4500122070312000,45.8975105285644500,667.3848876953125000,4.3845438957214355,54.2185707092285160,53,101,92,80,82,15191,2147754532,2147422454,2148012032,2147878592,2147642386,2147062500,2148260260,2147194806,2922,4,13,51262
1355027614,5808,963.1199951171875000,48.8938217163085940,673.3884887695312000,4.1861968040466310,53.8622817993164060,53,99,86,80,80,15192,2147753499,2147422034,2148011181,2147874532,2147641728,2147056246,2148261723,2147196406,3327,4,13,6366
1355031214,5812,969.5499877929688000,49.2984695434570300,674.9968261718750000,4.1329941749572750,53.8296585083007800,52,99,86,79,81,15190,2147752969,2147422793,2148009993,2147874413,2147644717,2147062189,2148263853,2147193380,435,4,13,37908
1355034814,5809,1006.7700195312500000,49.1929283142089840,676.2667236328125000,4.0909628868103030,53.8592109680175800,51,97,88,78,81,15191,2147755730,2147419995,2148010962,2147874688,2147640438,2147060726,2148262784,2147198930,3304,4,13,26356
1355038414,5809,1010.1900024414062000,49.1893806457519500,676.2659301757812000,4.0909881591796875,53.8636207580566400,53,96,88,80,81,15188,2147757933,2147420873,2148011547,2147875638,2147642852,2147057408,2148263369,2147193673,166,4,13,56758
1355042014,5808,1019.6799926757812000,48.9076194763183600,675.3084716796875000,4.1226792335510250,53.8907814025878900,52,100,84,79,81,15188,2147758884,2147421348,2148012288,2147872192,2147643044,2147055177,2148260827,2147193974,2723,4,13,1932
1355045614,5811,1016.1400146484375000,48.7929191589355500,675.5432128906250000,4.1149082183837890,53.9053497314453100,52,98,87,80,82,15185,2147754752,2147419949,2148011501,2147873225,2147643885,2147059172,2148260132,2147195382,389,4,13,39640
1355049214,5810,1027.2199707031250000,48.6244010925293000,675.0078735351562000,4.1326260566711430,53.9215698242187500,53,101,88,78,81,15186,2147753993,2147422134,2148010614,2147873106,2147643017,2147051117,2148260077,2147194880,2663,4,13,6949
1355052814,5811,1016.9400024414062000,48.7274818420410160,675.7833862304688000,4.1069598197937010,53.9173889160156250,51,98,83,79,81,15185,2147755190,2147423232,2148013485,2147872905,2147645120,2147059419,2148265289,2147196864,32,4,13,58829
1355056414,5802,1008.5999755859375000,48.8750000000000000,677.3671875000000000,4.0545220375061035,53.9175300598144500,53,99,91,79,80,15186,2147755337,2147421796,2148010304,2147871835,2147644388,2147051428,2148262528,2147195638,3440,4,13,62275
1355060014,5807,1003.6199951171875000,49.0645790100097660,678.5817871093750000,4.0142860412597660,53.9049491882324200,52,168,89,79,81,15187,2147755190,2147421641,2148011849,2147873993,2147641700,2147054098,2148264786,2147193709,2570,4,13,61406
1355063614,5809,1010.5000000000000000,48.9148712158203100,678.2045898437500000,4.0267848968505860,53.9239387512207000,53,99,86,79,82,15188,2147756141,2147422637,2148009490,2147874413,2147647241,2147058294,2148262089,2147195090,317,4,13,47256
1355067214,5812,1002.5700073242188000,49.1975898742675800,679.2432861328125000,3.9923670291900635,53.8975296020507800,52,99,86,78,81,15185,2147755318,2147422363,2148011547,2147872950,2147643657,2147051465,2148263936,2147192128,371,4,13,57229
1355070814,5810,1015.7500000000000000,49.5420913696289060,679.1987304687500000,3.9938490390777590,53.8497390747070300,53,97,88,78,81,15183,2147756516,2147420388,2148011821,2147873819,2147645449,2147055890,2148268900,2147196141,109,4,13,52308
1355074414,5810,1016.0800170898438000,49.0717086791992200,677.9180908203125000,4.0362758636474610,53.8949012756347660,53,99,89,80,80,15184,2147754953,2147421284,2148010011,2147872073,2147647926,2147057810,2148266048,2147195254,91,4,13,58025
1355078014,5809,1010.6300048828125000,48.8773803710937500,678.2678833007812000,4.0246868133544920,53.9268798828125000,52,100,88,79,81,15124,2147755446,2147419776,2148012361,2147875318,2147644214,2147062939,2148262838,2147197961,2583,4,13,48981
1355081614,5810,1009.2800292968750000,49.1214103698730500,679.2974853515625000,3.9905719757080080,53.9061698913574200,52,99,87,80,81,15182,2147757138,2147421321,2148008457,2147877046,2147643446,2147057453,2148268041,2147192475,2541,4,13,54737
1355085214,5804,1011.9099731445312000,49.2690010070800800,678.9124755859375000,4.0033321380615230,53.8844108581543000,53,99,87,78,81,15181,2147756306,2147420105,2148011227,2147874413,2147644425,2147053869,2148261430,2147197632,624,4,13,59544
1355088814,5809,1016.9699707031250000,48.8218002319335940,678.1519165039062000,4.0285320281982420,53.9339599609375000,53,97,87,80,81,15180,2147756068,2147421979,2148011236,2147875218,2147642432,2147057536,2148266898,2147194185,898,4,13,45853
1355092414,5811,1021.0599975585938000,48.8415184020996100,677.8082275390625000,4.0399150848388670,53.9312782287597660,53,102,84,79,81,15182,2147754752,2147419693,2148011501,2147874953,2147644809,2147055021,2148262454,2147197558,85,4,13,19373
1355096014,5812,1021.6300048828125000,48.8249702453613300,678.1680297851562000,4.0279960632324220,53.9338188171386700,52,98,85,79,82,15180,2147754870,2147419355,2148012525,2147871862,2147646720,2147055981,2148264118,2147197942,3245,4,13,23490
1355099614,5807,1021.2100219726562000,48.7824401855468750,677.6370849609375000,4.0455818176269530,53.9364395141601560,52,98,89,79,81,15182,2147756845,2147417974,2148015003,2147870774,2147645705,2147055488,2148262034,2147197302,3561,4,13,11779
1355103214,5807,1014.2299804687500000,48.6687202453613300,678.6298828125000000,4.0126929283142090,53.9618682861328100,53,99,86,78,82,15181,2147756251,2147419629,2148009993,2147872996,2147646390,2147052224,2148266669,2147197165,194,4,13,20391
1355106814,5809,1018.9400024414062000,48.7597694396972660,679.2722778320312000,3.9914069175720215,53.9564704895019500,53,101,89,79,80,15179,2147755200,2147418285,2148010349,2147878336,2147646208,2147059291,2148269677,2147195163,3498,4,13,17296
1355110414,5811,1019.1300048828125000,49.3003997802734400,679.5181274414062000,3.9832611083984375,53.8859214782714840,52,100,83,79,81,15179,2147757659,2147419840,2148008438,2147871460,2147648027,2147061412,2148261229,2147196699,70,5,13,24418
1355114014,5809,1026.5500488281250000,49.5181388854980500,679.2395019531250000,3.9924950599670410,53.8542594909668000,53,99,86,78,80,15180,2147755638,2147419940,2148013046,2147874194,2147646153,2147059181,2148263369,2147197485,3587,4,13,65075
1355117614,5805,1024.1500244140625000,49.2073097229003900,678.2473144531250000,4.0253720283508300,53.8871116638183600,53,132,87,79,80,15177,2147754596,2147419803,2148011611,2147871515,2147644736,2147055469,2148261933,2147193398,3575,4,13,24406
1355121214,5807,1024.1099853515625000,48.4602317810058600,677.8613281250000000,4.0381579399108890,53.9845085144043000,53,98,91,79,81,15179,2147756425,2147420452,2148012388,2147872457,2147646336,2147057590,2148264996,2147197732,167,4,13,61670
1355124814,5809,1026.9499511718750000,48.6501617431640600,677.1840820312500000,4.0605831146240230,53.9473190307617200,53,97,88,78,82,15175,2147758756,2147421248,2148008768,2147871981,2147643446,2147057371,2148262354,2147192777,335,4,13,5031
1355128414,5809,1025.5400390625000000,48.3113594055175800,677.5678710937500000,4.0478758811950680,54.0022010803222660,52,99,86,79,82,15172,2147757357,2147422052,2148011245,2147874130,2147645732,2147056073,2148265682,2147197458,142,4,13,61855
1355132014,5806,1032.7800292968750000,48.3771781921386700,676.6049804687500000,4.0797600746154785,53.9753112792968750,53,99,85,80,80,15173,2147755218,2147419044,2148011373,2147871981,2147640822,2147055122,2148259748,2147197723,365,4,13,14884
1355135614,5811,1027.7600097656250000,47.8790893554687500,676.4334716796875000,4.0854401588439940,54.0465698242187500,52,99,89,79,82,15174,2147756096,2147421961,2148010121,2147873590,2147641782,2147053046,2148263616,2147196562,265,4,13,33068
1355139214,5809,1030.9000244140625000,47.9753608703613300,676.6152954101562000,4.0794200897216800,54.0344581604003900,52,114,86,79,81,15172,2147754413,2147420352,2148011392,2147873261,2147644717,2147056320,2148261613,2147196315,485,4,13,7005
1355142814,5807,1026.2199707031250000,47.9957695007324200,677.3267211914062000,4.0558638572692870,54.0383911132812500,53,100,88,79,80,15105,2147757046,2147423844,2148010651,2147872210,2147644169,2147057581,2148263945,2147193938,3523,4,13,50016
1355146414,5810,1024.4399414062500000,48.2133789062500000,678.4257812500000000,4.0194568634033200,54.0251884460449200,52,98,88,77,81,15102,2147755035,2147422336,2148007643,2147871424,2147645869,2147057307,2148263003,2147195968,117,4,13,47434
1355150014,5812,1026.0000000000000000,48.0202407836914060,678.3071899414062000,4.0233860015869140,54.0466918945312500,53,97,87,79,81,15097,2147752365,2147422729,2148007817,2147873782,2147646948,2147062509,2148262134,2147197293,236,4,13,18614
1355153614,5806,1025.6500244140625000,49.4778289794921900,679.6336059570312000,3.9794330596923830,53.8638801574707000,52,101,84,80,82,15098,2147753865,2147423049,2148012013,2147873572,2147645513,2147055570,2148265837,2147192886,3526,4,13,43625
1355157214,5810,1027.8599853515625000,48.8311882019043000,678.5319824218750000,4.0159378051757810,53.9388618469238300,53,98,85,79,79,15095,2147758720,2147422665,2148011510,2147869906,2147643885,2147054180,2148262464,2147192310,3492,4,13,38554
1355160814,5810,1024.9399414062500000,49.2903785705566400,679.1099853515625000,3.9967861175537110,53.8861999511718750,53,98,85,79,81,15096,2147756452,2147421211,2148012233,2147876388,2147645293,2147057956,2148262966,2147195456,3065,4,13,46491
1355164414,5808,1021.3900146484375000,48.8315086364746100,679.7260131835938000,3.9763720035552980,53.9561195373535160,52,98,85,78,82,15082,2147755529,2147422034,2148012726,2147872950,2147640658,2147055808,2148260699,2147193865,168,4,13,53073
1355168014,5806,1023.9299926757812000,49.2090988159179700,679.0017700195312000,4.0003738403320310,53.8921394348144500,52,97,88,79,82,15091,2147755346,2147426368,2148012077,2147869385,2147644205,2147055378,2148260205,2147194276,3281,4,13,19568
1355168756,5811,1018.7299804687500000,49.0085601806640600,679.3541870117188000,3.9886910915374756,53.9288291931152340,54,99,89,79,82,15162,2147754441,2147421942,2148010130,2147872164,2147644379,2147054390,2148257673,2147199131,3441,4,13,54087
